Location: Bernay
(48.6766°N, 2.9386°E)
Time: 09:33:13
(UTC+00:00)

Cosmos 1328 Rocket - Pass Details

Date: 12 January 2026
Orbit: 595 x 619 km, 82.5° (Epoch: 14 February)

Event Time Altitude Azimuth Distance (km) Brightness Sun altitude
Rises 16:58:26 0° 165° (SSE) 2,856 7.1 -7.0°
Reaches altitude 10° 17:00:46 10° 156° (SSE) 1,962 6.2 -7.3°
Maximum altitude 17:04:42 35° 91° (E) 1,006 4.2 -7.9°
Drops below altitude 10° 17:08:42 10° 26° (NNE) 1,988 5.7 -8.5°
Sets 17:11:04 0° 18° (NNE) 2,902 6.6 -8.9°
